Regional Weather Roundup
Issued by NWS

Home | Current Version | Previous Version | Graphics & Text | Print | Product List | Glossary On
Versions: 1 2 3 4 5 6 7 8 9 10 11 12 13 14 15 16 17 18 19 20 21 22 23 24 25 26 27 28
000
ASUS45 KBOU 242307
RWRCO

WEATHER ROUNDUP FOR COLORADO
NATIONAL WEATHER SERVICE DENVER/BOULDER CO
500 PM MDT FRI OCT 24 2014

NOTE: "FAIR" INDICATES FEW OR NO CLOUDS BELOW 12000 FEET WITH NO
SIGNIFICANT WEATHER AND/OR OBSTRUCTIONS TO VISIBILITY.

COZ001>005-013-030-031-250000-
...NORTHWEST COLORADO...

CITY           SKY/WX    TMP DP  RH WIND       PRES   REMARKS
CRAIG          SUNNY     72  22  15 W18       30.24S
HAYDEN         SUNNY     72  25  17 W15       30.26S
MEEKER         SUNNY     72  23  16 SW16      30.27S
MOUNT WERNER   NOT AVBL
STEAMBOAT SPGS SUNNY     69  25  19 W13       30.28S
WALDEN         SUNNY     61  19  20 SW16G22   30.36R
$$

COZ006>008-011-250000-
...WEST CENTRAL VALLEYS...

CITY           SKY/WX    TMP DP  RH WIND       PRES   REMARKS
GRAND JUNCTION SUNNY     73  33  23 N8        30.21F
MONTROSE       SUNNY     75  29  18 NW5       30.27F
EAGLE          SUNNY     72  25  17 W13       30.31R
RIFLE          SUNNY     72  32  23 W14       30.24S
DELTA          SUNNY     79  29  15 W5        30.23S
NUCLA          SUNNY     73  28  19 NE6       30.31S
$$

COZ017>023-064>068-250000-
...SOUTHWEST COLORADO...

CITY           SKY/WX    TMP DP  RH WIND       PRES   REMARKS
DURANGO        SUNNY     70  33  25 SW9       30.31F
CORTEZ         SUNNY     73  24  16 W10       30.29F
PAGOSA SPRINGS SUNNY     69  24  18 SW6       30.38S
TELLURIDE      SUNNY     63  25  23 W12       30.48S
WOLF CREEK PAS SUNNY     50  27  40 SW10G20     N/A
$$

COZ009-010-012-014-032>034-037-058>063-250000-
...CENTRAL COLORADO...

CITY           SKY/WX    TMP DP  RH WIND       PRES   REMARKS
ASPEN          SUNNY     66  28  24 N6        30.35S
BUENA VISTA    SUNNY     70  13  11 SW17      30.34S
COPPER MTN     SUNNY     54  12  19 W15G28    30.62S
BERTHOUD PASS  FAIR      43  39  87 W22       30.65R
COTTONWOOD PAS SUNNY     63   1   8 W12G20    30.48S
GUNNISON       SUNNY     66  25  20 N7        30.38F
KREMMLING      SUNNY     70   9   9 SW15G21     N/A
LEADVILLE      SUNNY     58  17  20 NW9G20    30.47S
SALIDA         SUNNY     72  15  11 W8G17     30.38F
SUNLIGHT       SUNNY     54  27  35 SW3       30.57S
WILKERSON PASS NOT AVBL
$$

COZ069>075-250000-
...SAN LUIS VALLEY/SANGRE DE CRISTO MOUNTAINS...

CITY           SKY/WX    TMP DP  RH WIND       PRES   REMARKS
ALAMOSA        SUNNY     70  20  15 CALM      30.34S
LA VETA PASS   SUNNY     59  14  17 S14G22    30.50S
SAGUACHE       SUNNY     68  28  22 S7        30.37S
$$

COZ035-036-038>040-250000-
...NORTHERN COLORADO FRONT RANGE...

CITY           SKY/WX    TMP DP  RH WIND       PRES   REMARKS
DENVER INTL AP SUNNY     79  22  12 E13       30.14S
DMNS CITY PARK   N/A     78  23  12 E8        30.13R
AURORA         SUNNY     77  22  12 E8        30.16S
FRONT RANGE AP NOT AVBL
ERIE MUNI ARPT SUNNY     81  18  10 SE3G16    30.12S
BOULDER MUN AP SUNNY     81  25  12 SW8       30.13R
CENTENNIAL     MOSUNNY   76  23  14 E9        30.16S
BROOMFIELD     SUNNY     81  23  12 CALM      30.16S
FORT COLLINS   SUNNY     79  30  17 SE9       30.11S
LONGMONT       SUNNY     81  26  13 E7        30.14R
$$

COZ041-046-047-076>085-087-088-250000-
...PIKES PEAK/PALMER DIVIDE AND SOUTHERN FOOTHILLS...

CITY           SKY/WX    TMP DP  RH WIND       PRES   REMARKS
COLO. SPRINGS  SUNNY     75  22  13 SE13      30.21F
A. F. ACADEMY  SUNNY     74  16  11 SE13      30.22S
ELLICOTT       NOT AVBL
FALCON         SUNNY     73  19  13 S9        30.27S
FORT CARSON    SUNNY     77  21  12 SE10      30.18S
LIMON          SUNNY     77  22  13 E5        30.16S
MONUMENT HILL  SUNNY     72  18  13 S12       30.25S
TRINIDAD       SUNNY     80  27  14 E6        30.18S
$$

COZ042>045-048>051-090-091-250000-
...NORTHEAST COLORADO...

CITY           SKY/WX    TMP DP  RH WIND       PRES   REMARKS
GREELEY ARPT   SUNNY     79  28  15 SE7       30.11S
AKRON          CLEAR     79  24  13 SW3       30.12S
BURLINGTON     CLEAR     85  21   9 N5        30.10R
WRAY           CLEAR     86  24  10 NW6       30.06R
STERLING       CLEAR     86  30  13 SW5       30.06R
HOLYOKE        CLEAR     84  30  14 CALM      30.05S
FORT MORGAN    SUNNY     80  24  12 S3        30.11S
$$

COZ086-089-092>099-250000-
...SOUTHEAST COLORADO...

CITY           SKY/WX    TMP DP  RH WIND       PRES   REMARKS
PUEBLO         SUNNY     82  19   9 SE8       30.10S
LA JUNTA       SUNNY     85  26  11 SW5       30.08S
LAMAR          SUNNY     86  32  14 NE3       30.05R
SPRINGFIELD      N/A     82  32  16 CALM      30.10S
$$



USA.gov is the U.S. government's official web portal to all federal, state and local government web resources and services.